When you browse on this site, cookies collect data to enhance your experience and personalize the content and advertising you see.
Visit our Privacy Policy to learn more. By continuing to use the site, you agree to this use of cookies and data.
  • In Hungary
  • List of Countries
  • For 7 days
  • Water Temperature
  • Satellite Maps
  • Weather Map
  • News
  • Weather Widgets
  • user-avatar
    Login

    Hourly Weather Makurdi

    Today, 17 November, Saturday

    Time Temperature Precipitation Wind Pressure Humidity
    00:00 +28°C° 0 mm 1 mps 749 mmHg 63%
    01:00 +28°C° 0 mm 1 mps 749 mmHg 65%
    02:00 +28°C° 0 mm 1 mps 749 mmHg 67%
    03:00 +27°C° 0 mm 1 mps 749 mmHg 69%
    04:00 +27°C° 0 mm 1 mps 749 mmHg 71%
    05:00 +27°C° 0 mm 1 mps 749 mmHg 74%
    06:00 +27°C° 0 mm 1 mps 749 mmHg 76%
    07:00 +28°C° 0 mm 1 mps 749 mmHg 76%
    08:00 +30°C° 0 mm 1 mps 750 mmHg 70%
    09:00 +32°C° 0 mm 1 mps 750 mmHg 63%
    10:00 +34°C° 0 mm 1 mps 750 mmHg 57%
    11:00 +36°C° 0 mm 1 mps 749 mmHg 50%
    12:00 +36°C° 0 mm 0 mps 749 mmHg 42%
    13:00 +38°C° 0 mm 0 mps 748 mmHg 34%
    14:00 +37°C° 0 mm 0 mps 747 mmHg 34%
    15:00 +39°C° 0 mm 1 mps 747 mmHg 33%
    16:00 +39°C° 0 mm 1 mps 746 mmHg 32%
    17:00 +36°C° 0 mm 1 mps 746 mmHg 36%
    18:00 +34°C° 0 mm 1 mps 747 mmHg 39%
    19:00 +31°C° 0 mm 0 mps 747 mmHg 42%
    20:00 +30°C° 0 mm 0 mps 747 mmHg 44%
    21:00 +29°C° 0 mm 0 mps 748 mmHg 45%
    22:00 +29°C° 0 mm 0 mps 748 mmHg 46%
    23:00 +28°C° 0 mm 0 mps 748 mmHg 48%

    Tomorrow, 18 November, Sunday

    Time Temperature Precipitation Wind Pressure Humidity
    00:00 +30°C° 0 mm 1 mps 748 mmHg 50%
    01:00 +29°C° 0 mm 1 mps 748 mmHg 52%
    02:00 +29°C° 0 mm 1 mps 748 mmHg 59%
    03:00 +28°C° 0 mm 2 mps 748 mmHg 66%
    04:00 +27°C° 0 mm 2 mps 748 mmHg 73%
    05:00 +27°C° 0 mm 2 mps 748 mmHg 76%
    06:00 +27°C° 0 mm 1 mps 748 mmHg 80%
    07:00 +27°C° 0 mm 1 mps 749 mmHg 84%
    08:00 +29°C° 0 mm 1 mps 749 mmHg 75%
    09:00 +31°C° 0 mm 1 mps 749 mmHg 67%
    10:00 +33°C° 0 mm 1 mps 749 mmHg 59%
    11:00 +36°C° 0 mm 1 mps 749 mmHg 51%
    12:00 +39°C° 0 mm 1 mps 748 mmHg 43%
    13:00 +38°C° 0 mm 0 mps 747 mmHg 35%
    14:00 +37°C° 0 mm 0 mps 747 mmHg 34%
    15:00 +40°C° 0 mm 1 mps 746 mmHg 32%
    16:00 +39°C° 0 mm 1 mps 745 mmHg 31%
    17:00 +35°C° 0 mm 0 mps 745 mmHg 34%
    18:00 +33°C° 0 mm 0 mps 746 mmHg 38%
    19:00 +31°C° 0 mm 0 mps 746 mmHg 42%
    20:00 +31°C° 0 mm 0 mps 746 mmHg 42%
    21:00 +30°C° 0 mm 0 mps 747 mmHg 43%
    22:00 +32°C° 0 mm 1 mps 748 mmHg 44%
    23:00 +31°C° 0 mm 1 mps 748 mmHg 48%

    Day after tomorrow, 19 November, Monday

    Time Temperature Precipitation Wind Pressure Humidity
    00:00 +31°C° 0 mm 2 mps 747 mmHg 52%
    01:00 +30°C° 0 mm 2 mps 747 mmHg 56%
    02:00 +29°C° 0 mm 2 mps 747 mmHg 62%
    03:00 +29°C° 0 mm 2 mps 747 mmHg 69%
    04:00 +28°C° 0 mm 2 mps 747 mmHg 76%
    05:00 +28°C° 0 mm 2 mps 747 mmHg 78%
    06:00 +28°C° 0 mm 2 mps 748 mmHg 81%
    07:00 +27°C° 0 mm 1 mps 748 mmHg 83%
    08:00 +29°C° 0 mm 1 mps 749 mmHg 76%
    09:00 +31°C° 0 mm 2 mps 749 mmHg 69%
    10:00 +34°C° 0 mm 2 mps 750 mmHg 62%
    11:00 +35°C° 0 mm 1 mps 749 mmHg 54%
    12:00 +37°C° 0 mm 1 mps 748 mmHg 47%
    13:00 +40°C° 0 mm 1 mps 747 mmHg 40%
    14:00 +39°C° 0 mm 1 mps 746 mmHg 38%
    15:00 +36°C° 0 mm 0 mps 746 mmHg 37%
    16:00 +36°C° 0 mm 0 mps 745 mmHg 35%
    17:00 +35°C° 0 mm 0 mps 745 mmHg 38%
    18:00 +35°C° 0 mm 1 mps 746 mmHg 42%
    19:00 +33°C° 0 mm 1 mps 746 mmHg 45%
    20:00 +33°C° 0 mm 1 mps 746 mmHg 47%
    21:00 +32°C° 0 mm 1 mps 747 mmHg 49%
    22:00 +32°C° 0 mm 1 mps 747 mmHg 51%
    23:00 +31°C° 0 mm 2 mps 747 mmHg 55%

    20 November, Tuesday

    Time Temperature Precipitation Wind Pressure Humidity
    00:00 +31°C° 0 mm 2 mps 747 mmHg 58%
    01:00 +30°C° 0 mm 2 mps 747 mmHg 61%
    02:00 +30°C° 0 mm 2 mps 747 mmHg 66%
    03:00 +29°C° 0 mm 2 mps 747 mmHg 71%
    04:00 +28°C° 0 mm 2 mps 746 mmHg 75%
    05:00 +28°C° 0 mm 2 mps 747 mmHg 78%
    06:00 +28°C° 0 mm 1 mps 748 mmHg 80%
    07:00 +28°C° 0 mm 1 mps 748 mmHg 82%
    08:00 +29°C° 0 mm 1 mps 749 mmHg 76%
    09:00 +31°C° 0 mm 2 mps 749 mmHg 70%
    10:00 +32°C° 0 mm 2 mps 749 mmHg 64%
    11:00 +35°C° 0 mm 1 mps 749 mmHg 57%
    12:00 +37°C° 0 mm 1 mps 748 mmHg 49%
    13:00 +40°C° 0 mm 1 mps 747 mmHg 41%
    14:00 +40°C° 0 mm 1 mps 747 mmHg 39%
    15:00 +37°C° 0 mm 0 mps 746 mmHg 37%
    16:00 +37°C° 0 mm 0 mps 745 mmHg 34%
    17:00 +35°C° 0 mm 0 mps 746 mmHg 38%
    18:00 +33°C° 0 mm 0 mps 746 mmHg 42%
    19:00 +33°C° 0 mm 1 mps 746 mmHg 45%
    20:00 +33°C° 0 mm 1 mps 747 mmHg 47%
    21:00 +32°C° 0 mm 1 mps 747 mmHg 50%
    22:00 +32°C° 0 mm 2 mps 748 mmHg 52%
    23:00 +31°C° 0 mm 2 mps 747 mmHg 57%

    21 November, Wednesday

    Time Temperature Precipitation Wind Pressure Humidity
    00:00 +30°C° 0 mm 2 mps 747 mmHg 62%
    01:00 +29°C° 0 mm 3 mps 747 mmHg 67%
    02:00 +29°C° 0 mm 2 mps 747 mmHg 72%
    03:00 +28°C° 0 mm 2 mps 747 mmHg 76%
    04:00 +28°C° 0 mm 2 mps 747 mmHg 81%
    05:00 +28°C° 0 mm 2 mps 747 mmHg 81%
    06:00 +28°C° 0 mm 2 mps 748 mmHg 81%
    07:00 +28°C° 0 mm 2 mps 749 mmHg 82%
    08:00 +29°C° 0 mm 2 mps 749 mmHg 79%
    09:00 +30°C° 0 mm 2 mps 749 mmHg 76%
    10:00 +30°C° 0 mm 2 mps 750 mmHg 72%
    11:00 +31°C° 0 mm 2 mps 749 mmHg 68%
    12:00 +32°C° 0 mm 2 mps 748 mmHg 63%
    13:00 +34°C° 0 mm 2 mps 747 mmHg 59%
    14:00 +34°C° 0 mm 1 mps 746 mmHg 55%
    15:00 +35°C° 0 mm 1 mps 746 mmHg 51%
    16:00 +36°C° 0 mm 1 mps 745 mmHg 47%
    17:00 +34°C° 0 mm 1 mps 746 mmHg 51%
    18:00 +33°C° 0 mm 1 mps 746 mmHg 55%
    19:00 +31°C° 0 mm 1 mps 746 mmHg 59%
    20:00 +31°C° 0 mm 1 mps 747 mmHg 61%
    21:00 +30°C° 0 mm 1 mps 747 mmHg 63%
    22:00 +30°C° 0 mm 2 mps 748 mmHg 65%
    23:00 +29°C° 0 mm 2 mps 748 mmHg 67%

    22 November, Thursday

    Time Temperature Precipitation Wind Pressure Humidity
    00:00 +29°C° 0 mm 2 mps 748 mmHg 69%
    01:00 +28°C° 0 mm 2 mps 747 mmHg 72%
    02:00 +28°C° 0 mm 2 mps 747 mmHg 75%
    03:00 +27°C° 0 mm 2 mps 747 mmHg 78%
    04:00 +27°C° 0 mm 2 mps 747 mmHg 82%
    05:00 +27°C° 0 mm 2 mps 748 mmHg 82%
    06:00 +27°C° 0 mm 2 mps 748 mmHg 83%
    07:00 +28°C° 0 mm 2 mps 749 mmHg 84%
    08:00 +28°C° 0.1 mm 2 mps 749 mmHg 82%
    09:00 +28°C° 0.1 mm 2 mps 749 mmHg 80%
    10:00 +29°C° 0.1 mm 2 mps 749 mmHg 78%
    11:00 +30°C° 0.1 mm 2 mps 749 mmHg 71%
    12:00 +32°C° 0.1 mm 2 mps 748 mmHg 64%
    13:00 +34°C° 0.1 mm 2 mps 747 mmHg 58%
    14:00 +35°C° 0 mm 2 mps 747 mmHg 54%
    15:00 +35°C° 0 mm 1 mps 746 mmHg 50%
    16:00 +35°C° 0 mm 1 mps 745 mmHg 46%
    17:00 +34°C° 0 mm 1 mps 746 mmHg 50%
    18:00 +32°C° 0 mm 1 mps 746 mmHg 54%
    19:00 +29°C° 0 mm 0 mps 747 mmHg 58%
    20:00 +28°C° 0 mm 0 mps 747 mmHg 60%
    21:00 +30°C° 0 mm 1 mps 747 mmHg 62%
    22:00 +29°C° 0 mm 1 mps 748 mmHg 64%
    23:00 +29°C° 0 mm 1 mps 748 mmHg 65%
    Show more